Location: Chantarel
(45.1638°N, 1.7873°E)
Time: 20:49:17
(UTC+00:00)

Meteor 1-11 Rocket - Pass Details

Date: 03 March 2021
Orbit: 831 x 916 km, 81.2° (Epoch: 13 April)

Event Time Altitude Azimuth Distance (km) Brightness Sun altitude
Rises 19:23:09 0° 175° (S) 3,468 6.7 -18.4°
Reaches altitude 10° 19:25:39 10° 170° (S) 2,521 6.0 -18.8°
Maximum altitude 19:31:12 54° 95° (E) 1,040 3.8 -19.8°
Drops below altitude 10° 19:36:40 10° 19° (NNE) 2,484 6.1 -20.7°
Sets 19:39:07 0° 15° (NNE) 3,414 6.8 -21.2°
